Showing default

SZ-21 MODULE, 66515

Orbit data source: Space-Track

SZ-21 MODULE, 66515 is a payload satellite owned by ZZHGB (CN) in LEO that was launched on Fri, 31 Oct 2025 UTC launched from the Jiuquan Satellite Launch Center, China (JSC). Payload-class satellites include a variety of spacecraft equipped with specific instruments for various scientific and technological missions. These include communications satellites like Starlink; space stations such as the ISS; scientific satellites like the Hubble; Earth observation satellites from companies like Planet Labs, Umbra, and HawkEye 360; GPS; miniature CubeSats for education and research; and military/defense satellites.

Loading next visibility...
Identifier
66515, 2025-246C
Orbit
LEO
Country
Flag of CNCN / PRC
Related business
Manufacturer
CAST
Mission
Operational Civil Spaceship
Bus & Motor
SHENZHOU OM, Unknown motor
Mass
~1,842 kg wet, ~1,500 kg dry
Launch date (UTC)
2025-10-31 (8 months ago)
Launch vehicle
Unknown
Launch site
Jiuquan Satellite Launch Center, China (JSC)
Object type
Payload
Rocket body
Debris
Shape & HBR
Cyl + 2 Pan, 14.5 m
Radar Cross Section
9.277 m², Large (>1 m²)

Expand to show TLE details & history
Last TLE update: 14 hours ago

TLE from 14 hours ago
0 SZ-21 MODULE
1 66515U 25246C   26171.38315940  .00041738  00000-0  25384-3 0  9990
2 66515  41.4727 287.4171 0005787  13.1539 346.9456 15.76651737 34247
Epoch: 2026-06-20T09:11Z
TLE epoch observation values (Epoch: 2026-06-20T09:11:44.972Z)
Latitude
0.00002°
Longitude
-119.11883°
Altitude
335.746 km
Speed
7.711 km/s
True Right ascension
19h 09m 40s
True Declination
0° 00' 00"
Sunlit
Object was in full shadow at epoch
Visualization orbit readout
Latitude
Unknown
Longitude
Unknown
Altitude
Unknown
Speed
Unknown
Apparent Right ascension
Unknown
Apparent Declination
Unknown
Sunlit
N/A
Visualization observer readout
Local Sidereal Time
10:19:06
Azimuth
Unknown
Elevation
Unknown
Doppler factor
Unknown
Orbital elements
Apogee altitude
346.072 km
Perigee altitude
338.293 km
Semi-major axis
6,720.32 km
Eccentricity
0.00058
Inclination
41.4727°
RAAN
287.4171°
Arg. of periapsis
13.1539°
True anomaly
346.93061°
Mean anomaly
346.9456°
Eccentric anomaly
346.93811°
Mean motion
3.93966 °/min
Orbital period
91.38 mins
BSTAR
0.00025384
Loading maneuver chart data...
Computing Atmospheric mass density...
Loading historical data...
Loading historical data...
Loading historical data...
Loading historical data...
Loading historical data...
Loading historical data...
Loading historical data...
Other satellites on launch #246 in the year 2025 (2025-10-31 UTC)

Documentation

Showing up to 5 results
|